Regional Weather Roundup
Issued by NWS

Home | Current Version | Previous Version | Graphics & Text | Print | Product List | Glossary On
Versions: 1 2 3 4 5 6 7 8 9 10 11 12 13 14 15 16 17 18 19 20 21 22 23 24 25 26 27 28 29 30 31 32 33 34 35 36 37 38 39 40 41 42 43 44 45 46 47 48 49 50
000
ASUS43 KIND 260209
RWRIN

WEATHER ROUNDUP FOR INDIANA
NATIONAL WEATHER SERVICE INDIANAPOLIS IN
1000 PM EDT FRI JUL 25 2014

NOTE: "FAIR" INDICATES FEW OR NO CLOUDS BELOW 12,000 FEET WITH NO
SIGNIFICANT WEATHER AND/OR OBSTRUCTIONS TO VISIBILITY.

* - STATION DOES NOT REPORT WEATHER SUCH AS PRECIPITATION OR FOG.

+ - STATION NOT QUALITY CONTROLLED BY THE NATIONAL WEATHER SERVICE.
    USE DATA WITH CAUTION...ESPECIALLY DEWPOINT AND RELATIVE
    HUMIDITY OBSERVATIONS.

INZ001>003-010>013-019-020-260300-
NORTHWEST INDIANA

CITY           SKY/WX    TMP DP  RH WIND       PRES   REMARKS
GARY /AIRPORT/ MOCLDY    72  61  68 S5        29.94S
KNOX *+        CLEAR     63  58  81 S5        29.96R
LA PORTE +     CLEAR     65  56  74 S5        29.96S
MICHIGAN CITY+ CLEAR     64  55  72 S5        29.96R
MONTICELLO +   CLOUDY    69  60  73 S5        29.97S
RENSSELAER +   CLOUDY    70  61  73 S5        29.97R
VALPARAISO     CLEAR     65  59  81 S5        29.96S

$$

LMZ046-743>745-260300-
SOUTHERN LAKE MICHIGAN

STATION/POSITION TIME  TEMP WIND        PRES
                       AIR  DIR/SP/G
                 (UTC) (F)  (DEG/KT/KT) (MB)
MICHIGAN CITY    0200   69  160/  9/ 13   N/A

$$

INZ004-005-014>016-021>024-260300-
NORTH CENTRAL INDIANA

CITY           SKY/WX    TMP DP  RH WIND       PRES   REMARKS
GOSHEN         PTCLDY    64  59  83 S6        29.97R
LOGANSPORT +   CLOUDY    64  59  82 SE3       29.98S
PERU/GRISSOM   CLOUDY    67  63  87 S5        29.98S
ROCHESTER +    CLEAR     68  59  73 S5        29.98R
SOUTH BEND     PTCLDY    68  57  68 S6        29.96S
WARSAW +       CLOUDY    68  59  73 CALM      29.99R

$$

INZ006>009-017-018-025>027-260300-
NORTHEAST INDIANA

CITY           SKY/WX    TMP DP  RH WIND       PRES   REMARKS
ANGOLA *+      CLEAR     66  57  72 S5        29.98S
AUBURN +       CLOUDY    68  55  64 CALM      30.00R
FORT WAYNE     MOCLDY    67  58  72 S3        29.99R
HUNTINGTON +   CLOUDY    68  58  70 CALM      29.99R

$$

INZ028-029-035-036-043>045-051>053-260300-
WEST CENTRAL INDIANA

CITY           SKY/WX    TMP DP  RH WIND       PRES   REMARKS
GREENCASTLE +  CLOUDY    64  61  88 CALM      30.01R
LAFAYETTE      CLOUDY    69  59  70 SW5       29.98R
TERRE HAUTE    CLEAR     65  60  84 CALM      29.99R

$$

INZ030>032-037>040-046>048-054>057-064-065-260300-
CENTRAL INDIANA

CITY           SKY/WX    TMP DP  RH WIND       PRES   REMARKS
CP ATTERBURY + CLOUDY    66  61  82 CALM      30.00R
COLUMBUS       MOCLDY    68  64  88 CALM      29.99R
INDIANAPOLIS   CLOUDY    70  59  68 SW5       29.99R
-EAGLE CREEK   CLOUDY    70  58  65 CALM      29.99R
KOKOMO *+      MOCLDY    64  61  88 S5        29.98S
MARION +       CLOUDY    65  60  83 CALM      29.99S
MT COMFORT *+  CLEAR     64  64 100 CALM      30.01R
SHELBYVILLE    MOCLDY    68  62  81 CALM      29.99R
ZIONSVILLE +   CLOUDY    67  61  78 CALM      30.00R

$$

INZ033-034-041-042-049-050-058-059-260300-
EAST CENTRAL INDIANA

CITY           SKY/WX    TMP DP  RH WIND       PRES   REMARKS
MUNCIE         MOCLDY    69  56  62 S3        29.99S

$$

INZ060-061-067>069-081>083-085>088-260300-
SOUTHWEST INDIANA

CITY           SKY/WX    TMP DP  RH WIND       PRES   REMARKS
EVANSVILLE     PTCLDY    72  60  66 CALM      29.98R
HUNTINGBURG *+ CLOUDY    70  61  73 CALM      29.99S
WASHINGTON +   PTCLDY    65  64  96 CALM      29.97S

$$

INZ062-063-066-070>080-084-089>092-260300-
SOUTH CENTRAL AND SOUTHEAST INDIANA

CITY           SKY/WX    TMP DP  RH WIND       PRES   REMARKS
BLOOMINGTON    CLOUDY    67  62  84 CALM      30.00R
NORTH VERNON + PTCLDY    66  66 100 CALM      29.99
SEYMOUR +      MOCLDY    63  52  67 CALM      29.99

$$




USA.gov is the U.S. government's official web portal to all federal, state and local government web resources and services.